Weather in Moksha

Russia / Samara Oblast     52°40′04″N   50°24′53″E
temp.,
°C
wind,
m/s
gust,
m/s
humid.,
%
clouds,
%
prec.,
mm/h
press.,
hPa
HPBL,
m
26 february, fri
fri2601:00−14s71294100 0.9 1020623
04:00−13s61194100 1.6 1019512
07:00−13sse51094100 0.3 1017363
10:00−12sse589398 0.6 1017374
13:00−11sse599197 0.1 1018507
16:00−12sse5109299 0.1 1017437
19:00−12sse71292100 0.0 1014405
22:00−10sse91594100 1.3 1010428
27 february, sat
sat2701:00−8s111894100 3.3 1003475
04:00−4s71095100 5.9 1001231
07:00+1wsw6129794 0.2 999459
10:00+1wsw6129296 0.2 999549
13:00+1wsw6119794 0.0 999535
16:00+1wsw5109897 0.1 999536
19:000wsw5998100 0.3 998475
22:00−1sw489998 0.9 998254
28 february, sun
sun2801:000sw4698100 1.6 998297
04:00−6w4795100 2.6 999267
07:00−9nw5109599 0.4 1001397
10:00−11nnw5109298 0.6 1004419
13:00−10nnw5991100 0.1 1006508
16:00−9nnw5891100 0.1 1008592
19:00−11nnw4895100 0.1 1011402
22:00−14nnw489494 0.3 1014308
1 march, mon
mon101:00−19nnw369680 0.0 1015106
04:00−21nnw349651 0.0 101867
07:00−22nnw349712 0.0 101957
10:00−20nnw369512 0.0 1021222
13:00−17nnw469244 0.0 1022331
16:00−15nnw259471 0.0 1023260
19:00−19nnw229979 0.0 102320
22:00−21w1210049 0.0 102420
2 march, tue
tue201:00−21wsw349635 0.0 102230
04:00−20sw459830 0.0 102174
07:00−18ssw61096100 0.0 1018231
10:00−14ssw71195100 0.3 1014319
13:00−9sw71193100 0.4 1011504
16:00−5sw7129499 0.9 1008556
19:00−3sw5997100 0.8 1005361
22:000wnw4996100 1.6 1004419